Regional Weather Roundup
Issued by NWS Little Rock, AR

Home | Current Version | Previous Version | Graphics & Text | Print | Product List | Glossary On
Versions: 1 2 3 4 5 6 7 8 9 10 11 12 13 14 15 16 17 18 19 20 21 22 23 24 25 26 27 28 29 30 31 32 33 34 35 36 37 38 39 40 41 42 43 44 45 46 47 48 49 50
000
ASUS44 KLZK 301405
RWRLZK

WEATHER ROUNDUP FOR ARKANSAS
NATIONAL WEATHER SERVICE LITTLE ROCK AR
900 AM CDT WED JUL 30 2014

NOTE: "FAIR" INDICATES FEW OR NO CLOUDS BELOW 12,000 FEET WITH NO
SIGNIFICANT WEATHER AND/OR OBSTRUCTIONS TO VISIBILITY.

ARZ001-003-010-029-301500-
NORTHWEST ARKANSAS

CITY           SKY/WX    TMP DP  RH WIND       PRES   REMARKS
FAYETTEVILLE   CLOUDY    69  66  90 S7        30.12R
FORT SMITH     CLOUDY    73  67  81 NE5       30.09R
HARRISON       LGT RAIN  67  65  93 CALM      30.12R
BENTONVILLE    CLOUDY    72  63  73 S5        30.13R
ROGERS         CLOUDY    71  66  84 SE5       30.13R
SILOAM SPGS    PTSUNNY   70  61  73 S8        30.12R
HIGHFILL       CLOUDY    71  65  81 CALM      30.12R
SPRINGDALE     PTSUNNY   72  64  78 CALM      30.14R
$$

ARZ004-005-016-301500-
NORTH CENTRAL ARKANSAS

CITY           SKY/WX    TMP DP  RH WIND       PRES   REMARKS
BATESVILLE     SUNNY     73  57  56 S6        30.11S
FLIPPIN        PTSUNNY   70  61  73 S3        30.10S
MTN HOME       PTSUNNY   69  62  78 SW3       30.10S
$$

ARZ040-041-301500-
WEST CENTRAL ARKANSAS

CITY           SKY/WX    TMP DP  RH WIND       PRES   REMARKS
MENA           CLOUDY    72  64  78 CALM      30.14S
MOUNT IDA      CLOUDY    69  63  81 CALM      30.11R
$$

ARZ009-017-025-026-028-301500-
NORTHEAST ARKANSAS

CITY           SKY/WX    TMP DP  RH WIND       PRES   REMARKS
CORNING        FAIR      72  63  73 S5        30.11S
JONESBORO      SUNNY     71  60  68 S6        30.11S
NEWPORT        SUNNY     75  63  66 S7        30.12S
WALNUT RIDGE   SUNNY     72  61  68 SW5       30.11R
BLYTHEVILLE    SUNNY     72  61  68 S3        30.12S
NW BLYTHEVILLE MOSUNNY   75  61  60 S6        30.12S
$$

ARZ022-023-033-042-044-301500-
CENTRAL ARKANSAS

CITY           SKY/WX    TMP DP  RH WIND       PRES   REMARKS
LITTLE ROCK    PTSUNNY   73  59  61 S6        30.12S
N LITTLE ROCK  PTSUNNY   73  63  70 SW7       30.12S
JACKSONVILLE   MOSUNNY   74  62  65 S6        30.12R
SEARCY         SUNNY     74  63  68 VRB6      30.12F
HOT SPRINGS    CLOUDY    71  59  65 SE3       30.13S
RUSSELLVILLE   MOSUNNY   73  65  75 VRB5      30.11R
CLINTON        FAIR      70  64  83 CALM      30.13S
$$

ARZ036-301500-
EAST ARKANSAS

CITY           SKY/WX    TMP DP  RH WIND       PRES   REMARKS
WEST MEMPHIS   SUNNY     71  62  73 S5        30.12R
$$

ARZ050-053-066-070-073-301500-
SOUTHWEST ARKANSAS

CITY           SKY/WX    TMP DP  RH WIND       PRES   REMARKS
ARKADELPHIA    FAIR      72  64  75 CALM      30.14R
CAMDEN         MOSUNNY   73  61  64 CALM      30.13R
TEXARKANA      CLOUDY    73  62  68 S9        30.11S
EL DORADO      MOSUNNY   73  62  68 SE7       30.13R
DE QUEEN       CLOUDY    72  67  84 NE3       30.10R
$$

ARZ056-057-069-301500-
SOUTHEAST ARKANSAS

CITY           SKY/WX    TMP DP  RH WIND       PRES   REMARKS
PINE BLUFF     MOSUNNY   72  60  66 S6        30.12S
STUTTGART      MOSUNNY   75  59  57 S10       30.13S
MONTICELLO     SUNNY     73  58  59 SE7       30.12R

$$




USA.gov is the U.S. government's official web portal to all federal, state and local government web resources and services.